OCN401 LBBG-EDDF

Flight info

Callsign OCN401
Flight time 2h 20m
Altitude 36000
Route ARNOV T226 ETUBA DCT UTEKA DCT BABIT DCT GOTAR DCT ABRUK DCT SIMBA DCT AKINI T161 DEBHI DEBHI1B
Aircraft A320/M-SDE3FGHIRWY/LB1

Departure

Time 2026-05-05 14:14
Airport Burgas Airport (LBBG)

Arrival

Time 2026-05-05 16:35
Airport Frankfurt Main Airport (EDDF)
Time Latitude Longitude Altitude Speed Heading
2026-05-05 13:46 42.56776 27.51857 147 ft 0 kts 95°
2026-05-05 14:07 42.56776 27.51853 148 ft 2 kts 95°
2026-05-05 14:07 42.56778 27.51832 148 ft 2 kts 95°
2026-05-05 14:07 42.56779 27.51812 147 ft 2 kts 95°
2026-05-05 14:07 42.56781 27.51792 147 ft 2 kts 123°
2026-05-05 14:08 42.56793 27.51779 146 ft 2 kts 167°
2026-05-05 14:08 42.56808 27.51781 146 ft 2 kts 210°
2026-05-05 14:08 42.56814 27.51787 146 ft 1 kts 233°
2026-05-05 14:08 42.56818 27.51794 146 ft 0 kts 230°
2026-05-05 14:10 42.56817 27.51792 146 ft 1 kts 230°
2026-05-05 14:10 42.56799 27.51764 146 ft 6 kts 229°
2026-05-05 14:10 42.56758 27.51701 145 ft 11 kts 229°
2026-05-05 14:10 42.56695 27.51604 144 ft 16 kts 229°
2026-05-05 14:11 42.56605 27.51468 141 ft 21 kts 229°
2026-05-05 14:11 42.56498 27.51303 139 ft 25 kts 228°
2026-05-05 14:11 42.56372 27.51112 130 ft 28 kts 229°
2026-05-05 14:11 42.56236 27.50905 123 ft 30 kts 227°
2026-05-05 14:12 42.56090 27.50689 115 ft 31 kts 232°
2026-05-05 14:12 42.55938 27.50461 107 ft 32 kts 227°
2026-05-05 14:12 42.55905 27.50290 101 ft 16 kts 308°
2026-05-05 14:12 42.55986 27.50187 95 ft 9 kts 342°
2026-05-05 14:13 42.56021 27.50212 96 ft 0 kts 44°
2026-05-05 14:13 42.56043 27.50240 96 ft 26 kts 45°
2026-05-05 14:13 42.56368 27.50670 110 ft 101 kts 45°
2026-05-05 14:13 42.57028 27.51545 138 ft 161 kts 45°
2026-05-05 14:14 42.57870 27.52641 699 ft 171 kts 45°
2026-05-05 14:14 42.58805 27.53597 1515 ft 172 kts 33°
2026-05-05 14:14 42.59828 27.54383 2234 ft 174 kts 30°
2026-05-05 14:14 42.60937 27.55192 2677 ft 190 kts 29°
2026-05-05 14:15 42.62231 27.55784 3068 ft 209 kts
2026-05-05 14:15 42.63719 27.55281 3401 ft 237 kts 329°
2026-05-05 14:15 42.64824 27.53531 3879 ft 261 kts 294°
2026-05-05 14:15 42.65094 27.51066 4652 ft 271 kts 275°
2026-05-05 14:16 42.65167 27.48533 5547 ft 272 kts 277°
2026-05-05 14:16 42.65268 27.45983 6427 ft 274 kts 278°
2026-05-05 14:16 42.65384 27.43409 7272 ft 277 kts 279°
2026-05-05 14:16 42.65506 27.40798 8087 ft 282 kts 279°
2026-05-05 14:17 42.65631 27.38141 8899 ft 287 kts 279°
2026-05-05 14:17 42.65756 27.35442 9710 ft 291 kts 279°
2026-05-05 14:17 42.65879 27.32696 10482 ft 298 kts 277°
2026-05-05 14:17 42.65943 27.29824 10997 ft 313 kts 276°
2026-05-05 14:18 42.65988 27.26845 11681 ft 321 kts 276°
2026-05-05 14:18 42.66029 27.23821 12473 ft 324 kts 276°
2026-05-05 14:18 42.66071 27.20765 13231 ft 328 kts 276°
2026-05-05 14:18 42.66113 27.17674 13945 ft 331 kts 276°
2026-05-05 14:19 42.66155 27.14546 14650 ft 335 kts 276°
2026-05-05 14:19 42.66198 27.11388 15374 ft 338 kts 276°
2026-05-05 14:19 42.66242 27.08198 16051 ft 341 kts 276°
2026-05-05 14:19 42.66399 27.05003 16726 ft 340 kts 284°
2026-05-05 14:20 42.66943 27.01911 17401 ft 338 kts 294°
2026-05-05 14:20 42.67795 26.98962 18046 ft 338 kts 298°
2026-05-05 14:20 42.68725 26.96032 18668 ft 341 kts 298°
2026-05-05 14:20 42.69672 26.93077 19258 ft 344 kts 298°
2026-05-05 14:21 42.70620 26.90088 19852 ft 348 kts 297°
2026-05-05 14:21 42.71570 26.87066 20426 ft 351 kts 297°
2026-05-05 14:21 42.72523 26.84011 20998 ft 354 kts 297°
2026-05-05 14:21 42.73483 26.80933 21574 ft 357 kts 297°
2026-05-05 14:22 42.74455 26.77832 22127 ft 359 kts 298°
2026-05-05 14:22 42.75545 26.74787 22665 ft 361 kts 301°
2026-05-05 14:22 42.76711 26.71766 23185 ft 364 kts 301°
2026-05-05 14:22 42.77894 26.68725 23708 ft 367 kts 301°
2026-05-05 14:23 42.79085 26.65658 24228 ft 369 kts 301°
2026-05-05 14:23 42.80285 26.62565 24723 ft 373 kts 301°
2026-05-05 14:23 42.81428 26.59390 25220 ft 377 kts 298°
2026-05-05 14:23 42.82435 26.56093 25702 ft 380 kts 295°
2026-05-05 14:24 42.83391 26.52739 26172 ft 383 kts 295°
2026-05-05 14:24 42.84348 26.49355 26603 ft 386 kts 295°
2026-05-05 14:24 42.85311 26.45941 27028 ft 389 kts 295°
2026-05-05 14:24 42.86279 26.42505 27482 ft 391 kts 295°
2026-05-05 14:25 42.87251 26.39053 27912 ft 393 kts 295°
2026-05-05 14:25 42.88230 26.35578 28307 ft 396 kts 295°
2026-05-05 14:25 42.89215 26.32075 28737 ft 397 kts 295°
2026-05-05 14:25 42.90198 26.28570 29172 ft 398 kts 295°
2026-05-05 14:26 42.91185 26.25053 29557 ft 400 kts 295°
2026-05-05 14:26 42.92177 26.21520 29926 ft 401 kts 295°
2026-05-05 14:26 42.93170 26.17971 30304 ft 403 kts 295°
2026-05-05 14:26 42.94166 26.14411 30671 ft 403 kts 295°
2026-05-05 14:27 42.95162 26.10843 30991 ft 405 kts 295°
2026-05-05 14:27 42.96158 26.07264 31302 ft 405 kts 295°
2026-05-05 14:27 42.97154 26.03682 31636 ft 406 kts 295°
2026-05-05 14:27 42.98154 26.00085 31924 ft 407 kts 295°
2026-05-05 14:28 42.99157 25.96478 32169 ft 409 kts 295°
2026-05-05 14:28 43.00162 25.92850 32410 ft 411 kts 295°
2026-05-05 14:28 43.01173 25.89202 32645 ft 413 kts 295°
2026-05-05 14:28 43.02187 25.85532 32874 ft 415 kts 295°
2026-05-05 14:29 43.03205 25.81845 33109 ft 417 kts 295°
2026-05-05 14:29 43.04223 25.78146 33355 ft 418 kts 295°
2026-05-05 14:29 43.05245 25.74435 33600 ft 419 kts 295°
2026-05-05 14:29 43.06266 25.70717 33854 ft 420 kts 295°
2026-05-05 14:30 43.07287 25.66993 34107 ft 420 kts 295°
2026-05-05 14:30 43.08306 25.63271 34376 ft 419 kts 295°
2026-05-05 14:30 43.09323 25.59549 34595 ft 420 kts 295°
2026-05-05 14:30 43.10344 25.55813 34795 ft 421 kts 295°
2026-05-05 14:31 43.11365 25.52068 34987 ft 422 kts 294°
2026-05-05 14:31 43.12387 25.48313 35174 ft 423 kts 294°
2026-05-05 14:31 43.13411 25.44546 35355 ft 424 kts 294°
2026-05-05 14:31 43.14436 25.40770 35538 ft 425 kts 294°
2026-05-05 14:32 43.15461 25.36985 35699 ft 426 kts 294°
2026-05-05 14:32 43.16488 25.33185 35869 ft 427 kts 293°
2026-05-05 14:32 43.17514 25.29379 35987 ft 428 kts 294°
2026-05-05 14:32 43.18543 25.25564 35993 ft 428 kts 293°
2026-05-05 14:33 43.20597 25.17926 36005 ft 429 kts 293°
2026-05-05 14:33 43.22641 25.10300 36002 ft 428 kts 293°
2026-05-05 14:34 43.24680 25.02675 35999 ft 428 kts 293°
2026-05-05 14:34 43.26701 24.95091 35988 ft 428 kts 293°
2026-05-05 14:35 43.28728 24.87455 35990 ft 428 kts 293°
2026-05-05 14:35 43.30750 24.79815 35996 ft 427 kts 293°
2026-05-05 14:36 43.32767 24.72181 35989 ft 427 kts 293°
2026-05-05 14:36 43.34779 24.64537 35988 ft 427 kts 293°
2026-05-05 14:37 43.36785 24.56885 35989 ft 427 kts 293°
2026-05-05 14:37 43.38786 24.49231 35987 ft 427 kts 293°
2026-05-05 14:38 43.40781 24.41574 35987 ft 427 kts 293°
2026-05-05 14:38 43.42772 24.33907 35986 ft 427 kts 292°
2026-05-05 14:39 43.44756 24.26244 35983 ft 426 kts 292°
2026-05-05 14:39 43.46733 24.18583 35985 ft 426 kts 292°
2026-05-05 14:40 43.48702 24.10930 35979 ft 426 kts 292°
2026-05-05 14:40 43.50666 24.03271 35978 ft 426 kts 292°
2026-05-05 14:41 43.52624 23.95611 35974 ft 425 kts 292°
2026-05-05 14:41 43.54577 23.87945 35966 ft 426 kts 292°
2026-05-05 14:42 43.56526 23.80267 35970 ft 426 kts 292°
2026-05-05 14:42 43.58467 23.72595 35968 ft 425 kts 292°
2026-05-05 14:43 43.60401 23.64930 35963 ft 425 kts 292°
2026-05-05 14:43 43.62328 23.57263 35959 ft 425 kts 292°
2026-05-05 14:44 43.64251 23.49591 35964 ft 424 kts 292°
2026-05-05 14:44 43.66168 23.41919 35964 ft 424 kts 292°
2026-05-05 14:45 43.68079 23.34239 35962 ft 424 kts 291°
2026-05-05 14:45 43.69984 23.26562 35966 ft 424 kts 291°
2026-05-05 14:46 43.71883 23.18884 35970 ft 424 kts 291°
2026-05-05 14:46 43.73775 23.11209 35967 ft 423 kts 291°
2026-05-05 14:47 43.75658 23.03539 35959 ft 423 kts 291°
2026-05-05 14:47 43.77538 22.95860 35960 ft 423 kts 291°
2026-05-05 14:48 43.79412 22.88182 35961 ft 423 kts 291°
2026-05-05 14:48 43.81280 22.80501 35954 ft 423 kts 291°
2026-05-05 14:49 43.83144 22.72812 35949 ft 423 kts 291°
2026-05-05 14:49 43.85004 22.65116 35959 ft 423 kts 291°
2026-05-05 14:50 43.86854 22.57424 35962 ft 422 kts 291°
2026-05-05 14:50 43.88722 22.49750 35967 ft 421 kts 293°
2026-05-05 14:51 43.91051 22.42362 35972 ft 420 kts 299°
2026-05-05 14:51 43.93990 22.35412 35976 ft 419 kts 305°
2026-05-05 14:52 43.97499 22.28992 35969 ft 419 kts 310°
2026-05-05 14:52 44.01268 22.22852 35974 ft 419 kts 311°
2026-05-05 14:53 44.05024 22.16755 35983 ft 420 kts 311°
2026-05-05 14:53 44.08830 22.10561 35994 ft 420 kts 311°
2026-05-05 14:54 44.12611 22.04390 35995 ft 420 kts 310°
2026-05-05 14:54 44.16367 21.98246 35998 ft 420 kts 310°
2026-05-05 14:55 44.20140 21.92060 36005 ft 420 kts 310°
2026-05-05 14:55 44.23909 21.85869 36001 ft 420 kts 310°
2026-05-05 14:56 44.27673 21.79671 35997 ft 420 kts 310°
2026-05-05 14:56 44.31437 21.73462 35987 ft 420 kts 310°
2026-05-05 14:57 44.35193 21.67250 35980 ft 420 kts 310°
2026-05-05 14:57 44.38945 21.61031 35975 ft 420 kts 310°
2026-05-05 14:58 44.42692 21.54810 35966 ft 420 kts 310°
2026-05-05 14:58 44.46433 21.48581 35963 ft 419 kts 310°
2026-05-05 14:59 44.50172 21.42343 35955 ft 420 kts 310°
2026-05-05 14:59 44.53914 21.36090 35952 ft 420 kts 310°
2026-05-05 15:00 44.57037 21.30857 35950 ft 420 kts 309°
2026-05-05 15:00 44.61388 21.23554 35943 ft 420 kts 309°
2026-05-05 15:01 44.65117 21.17276 35935 ft 420 kts 309°
2026-05-05 15:01 44.68842 21.10991 35930 ft 420 kts 309°
2026-05-05 15:02 44.72568 21.04696 35925 ft 421 kts 309°
2026-05-05 15:02 44.76297 20.98380 35921 ft 421 kts 309°
2026-05-05 15:03 44.80019 20.92055 35920 ft 421 kts 309°
2026-05-05 15:03 44.83739 20.85722 35924 ft 420 kts 309°
2026-05-05 15:04 44.87449 20.79393 35928 ft 420 kts 308°
2026-05-05 15:04 44.91154 20.73058 35929 ft 420 kts 308°
2026-05-05 15:05 44.96704 20.63545 35927 ft 420 kts 308°
2026-05-05 15:06 45.00399 20.57194 35933 ft 419 kts 308°
2026-05-05 15:06 45.04086 20.50842 35934 ft 419 kts 308°
2026-05-05 15:07 45.07770 20.44479 35933 ft 420 kts 308°
2026-05-05 15:07 45.11458 20.38096 35927 ft 420 kts 308°
2026-05-05 15:08 45.15144 20.31702 35925 ft 420 kts 307°
2026-05-05 15:08 45.18821 20.25313 35926 ft 419 kts 307°
2026-05-05 15:09 45.22487 20.18926 35920 ft 419 kts 307°
2026-05-05 15:09 45.26153 20.12523 35913 ft 420 kts 307°
2026-05-05 15:10 45.29820 20.06105 35909 ft 420 kts 307°
2026-05-05 15:10 45.33484 19.99676 35907 ft 420 kts 307°
2026-05-05 15:11 45.37146 19.93236 35901 ft 420 kts 307°
2026-05-05 15:11 45.40812 19.86774 35898 ft 422 kts 307°
2026-05-05 15:12 45.44484 19.80290 35896 ft 422 kts 307°
2026-05-05 15:12 45.48156 19.73792 35897 ft 423 kts 307°
2026-05-05 15:13 45.51797 19.67331 35899 ft 422 kts 307°
2026-05-05 15:13 45.55462 19.60811 35897 ft 423 kts 307°
2026-05-05 15:14 45.59132 19.54268 35899 ft 423 kts 307°
2026-05-05 15:14 45.62800 19.47717 35898 ft 423 kts 307°
2026-05-05 15:15 45.66469 19.41144 35902 ft 424 kts 307°
2026-05-05 15:15 45.70147 19.34540 35901 ft 426 kts 306°
2026-05-05 15:16 45.73826 19.27920 35903 ft 426 kts 306°
2026-05-05 15:16 45.77502 19.21291 35901 ft 426 kts 306°
2026-05-05 15:17 45.81160 19.14684 35902 ft 425 kts 306°
2026-05-05 15:17 45.84833 19.08032 35902 ft 425 kts 306°
2026-05-05 15:18 45.88481 19.01404 35896 ft 425 kts 306°
2026-05-05 15:18 45.92089 18.94751 35900 ft 425 kts 304°
2026-05-05 15:19 45.95320 18.87656 35900 ft 424 kts 299°
2026-05-05 15:19 45.98327 18.80382 35900 ft 425 kts 298°
2026-05-05 15:20 46.01310 18.73122 35900 ft 426 kts 299°
2026-05-05 15:20 46.04315 18.65796 35893 ft 426 kts 299°
2026-05-05 15:21 46.07321 18.58453 35890 ft 427 kts 299°
2026-05-05 15:21 46.10323 18.51103 35892 ft 426 kts 299°
2026-05-05 15:22 46.13323 18.43737 35900 ft 426 kts 299°
2026-05-05 15:22 46.16315 18.36372 35907 ft 427 kts 299°
2026-05-05 15:23 46.19286 18.29037 35905 ft 427 kts 298°
2026-05-05 15:23 46.22271 18.21649 35904 ft 428 kts 298°
2026-05-05 15:24 46.25258 18.14237 35904 ft 428 kts 298°
2026-05-05 15:24 46.28243 18.06809 35910 ft 429 kts 298°
2026-05-05 15:25 46.31229 17.99362 35908 ft 430 kts 298°
2026-05-05 15:25 46.34206 17.91913 35894 ft 429 kts 298°
2026-05-05 15:26 46.37175 17.84466 35903 ft 428 kts 298°
2026-05-05 15:26 46.40139 17.77009 35898 ft 429 kts 298°
2026-05-05 15:27 46.43099 17.69543 35895 ft 429 kts 298°
2026-05-05 15:27 46.46057 17.62061 35896 ft 429 kts 298°
2026-05-05 15:28 46.49012 17.54565 35895 ft 430 kts 298°
2026-05-05 15:28 46.51965 17.47059 35898 ft 430 kts 298°
2026-05-05 15:29 46.54913 17.39540 35894 ft 430 kts 298°
2026-05-05 15:29 46.57858 17.32008 35898 ft 430 kts 298°
2026-05-05 15:30 46.60797 17.24474 35896 ft 430 kts 298°
2026-05-05 15:30 46.63709 17.16985 35897 ft 430 kts 298°
2026-05-05 15:31 46.66639 17.09431 35895 ft 430 kts 298°
2026-05-05 15:31 46.69562 17.01873 35896 ft 430 kts 298°
2026-05-05 15:32 46.72485 16.94293 35886 ft 431 kts 298°
2026-05-05 15:32 46.75409 16.86691 35872 ft 432 kts 298°
2026-05-05 15:33 46.78333 16.79069 35867 ft 432 kts 297°
2026-05-05 15:33 46.81251 16.71440 35870 ft 432 kts 297°
2026-05-05 15:34 46.84146 16.63849 35862 ft 432 kts 297°
2026-05-05 15:34 46.87053 16.56204 35861 ft 431 kts 297°
2026-05-05 15:35 46.89942 16.48585 35856 ft 432 kts 297°
2026-05-05 15:35 46.92844 16.40909 35851 ft 432 kts 297°
2026-05-05 15:36 46.95754 16.33191 35856 ft 432 kts 297°
2026-05-05 15:36 46.98640 16.25510 35857 ft 433 kts 297°
2026-05-05 15:37 47.01339 16.17690 35858 ft 433 kts 294°
2026-05-05 15:37 47.03916 16.09701 35852 ft 433 kts 293°
2026-05-05 15:38 47.06469 16.01751 35848 ft 432 kts 293°
2026-05-05 15:38 47.09016 15.93805 35853 ft 433 kts 293°
2026-05-05 15:39 47.11574 15.85801 35838 ft 432 kts 293°
2026-05-05 15:39 47.14109 15.77848 35842 ft 432 kts 293°
2026-05-05 15:40 47.16638 15.69889 35852 ft 431 kts 293°
2026-05-05 15:40 47.19155 15.61942 35851 ft 432 kts 293°
2026-05-05 15:41 47.21674 15.53970 35837 ft 432 kts 293°
2026-05-05 15:41 47.24193 15.45969 35833 ft 431 kts 294°
2026-05-05 15:42 47.26695 15.37997 35831 ft 431 kts 293°
2026-05-05 15:42 47.29189 15.30021 35837 ft 431 kts 293°
2026-05-05 15:43 47.31679 15.22035 35828 ft 430 kts 293°
2026-05-05 15:43 47.34166 15.14038 35828 ft 430 kts 293°
2026-05-05 15:44 47.36631 15.06079 35834 ft 431 kts 293°
2026-05-05 15:44 47.39402 14.98280 35846 ft 431 kts 299°
2026-05-05 15:45 47.42615 14.90829 35853 ft 431 kts 301°
2026-05-05 15:45 47.45882 14.83407 35842 ft 430 kts 301°
2026-05-05 15:46 47.49114 14.76038 35838 ft 430 kts 301°
2026-05-05 15:46 47.52349 14.68635 35830 ft 430 kts 301°
2026-05-05 15:47 47.55577 14.61224 35823 ft 431 kts 301°
2026-05-05 15:47 47.58804 14.53792 35822 ft 431 kts 301°
2026-05-05 15:48 47.62044 14.46316 35822 ft 431 kts 301°
2026-05-05 15:48 47.65263 14.38865 35802 ft 431 kts 301°
2026-05-05 15:49 47.68497 14.31355 35784 ft 431 kts 300°
2026-05-05 15:49 47.71715 14.23863 35793 ft 438 kts 300°
2026-05-05 15:50 47.74997 14.16201 35777 ft 440 kts 300°
2026-05-05 15:50 47.78255 14.08580 35786 ft 440 kts 300°
2026-05-05 15:51 47.81517 14.00924 35783 ft 441 kts 300°
2026-05-05 15:51 47.84793 13.93208 35775 ft 442 kts 300°
2026-05-05 15:52 47.88057 13.85501 35769 ft 442 kts 300°
2026-05-05 15:52 47.91321 13.77777 35761 ft 443 kts 300°
2026-05-05 15:53 47.94574 13.70051 35750 ft 443 kts 300°
2026-05-05 15:53 47.97844 13.62268 35756 ft 443 kts 300°
2026-05-05 15:54 48.01094 13.54509 35750 ft 443 kts 299°
2026-05-05 15:54 48.04351 13.46715 35744 ft 443 kts 299°
2026-05-05 15:55 48.07594 13.38920 35747 ft 444 kts 299°
2026-05-05 15:55 48.10849 13.31078 35742 ft 444 kts 298°
2026-05-05 15:56 48.14077 13.23277 35737 ft 444 kts 298°
2026-05-05 15:56 48.17316 13.15434 35743 ft 445 kts 298°
2026-05-05 15:57 48.20544 13.07588 35740 ft 445 kts 299°
2026-05-05 15:57 48.24110 12.99945 35731 ft 449 kts 305°
2026-05-05 15:58 48.28135 12.92857 35739 ft 450 kts 308°
2026-05-05 15:58 48.32298 12.85823 35734 ft 451 kts 308°
2026-05-05 15:59 48.36449 12.78789 35731 ft 451 kts 308°
2026-05-05 15:59 48.40585 12.71746 35735 ft 450 kts 308°
2026-05-05 16:00 48.44717 12.64687 35729 ft 450 kts 308°
2026-05-05 16:00 48.48844 12.57617 35740 ft 451 kts 308°
2026-05-05 16:01 48.52950 12.50564 35745 ft 451 kts 308°
2026-05-05 16:01 48.57096 12.43424 35747 ft 452 kts 308°
2026-05-05 16:02 48.61216 12.36307 35746 ft 453 kts 308°
2026-05-05 16:02 48.65377 12.29100 35753 ft 454 kts 307°
2026-05-05 16:03 48.69469 12.21896 35751 ft 453 kts 304°
2026-05-05 16:03 48.72884 12.13999 35754 ft 449 kts 294°
2026-05-05 16:04 48.75304 12.05392 35765 ft 445 kts 284°
2026-05-05 16:04 48.76706 11.96356 35760 ft 441 kts 276°
2026-05-05 16:05 48.77688 11.87222 35762 ft 441 kts 276°
2026-05-05 16:05 48.78656 11.78063 35761 ft 442 kts 276°
2026-05-05 16:06 48.79634 11.68848 35770 ft 443 kts 276°
2026-05-05 16:06 48.80602 11.59687 35762 ft 443 kts 276°
2026-05-05 16:07 48.81557 11.50453 35768 ft 444 kts 276°
2026-05-05 16:07 48.82510 11.41169 35776 ft 445 kts 275°
2026-05-05 16:08 48.83623 11.31963 35769 ft 449 kts 281°
2026-05-05 16:08 48.85927 11.23095 35777 ft 457 kts 294°
2026-05-05 16:09 48.89516 11.15137 35785 ft 465 kts 307°
2026-05-05 16:09 48.94136 11.08297 35468 ft 461 kts 314°
2026-05-05 16:09 48.96521 11.05064 34886 ft 460 kts 315°
2026-05-05 16:10 48.98867 11.01839 34223 ft 459 kts 314°
2026-05-05 16:10 49.01208 10.98573 33584 ft 457 kts 314°
2026-05-05 16:10 49.03539 10.95297 33022 ft 453 kts 315°
2026-05-05 16:10 49.05825 10.92077 32797 ft 452 kts 315°
2026-05-05 16:11 49.08138 10.88821 32800 ft 454 kts 315°
2026-05-05 16:11 49.14954 10.79191 31877 ft 436 kts 315°
2026-05-05 16:12 49.17148 10.76079 31462 ft 431 kts 315°
2026-05-05 16:12 49.21408 10.69800 30324 ft 427 kts 313°
2026-05-05 16:13 49.27712 10.59844 27382 ft 445 kts 313°
2026-05-05 16:13 49.29852 10.56459 26776 ft 440 kts 313°
2026-05-05 16:13 49.31961 10.53123 26196 ft 435 kts 313°
2026-05-05 16:14 49.36045 10.46390 24993 ft 426 kts 308°
2026-05-05 16:14 49.39501 10.39206 23847 ft 417 kts 303°
2026-05-05 16:15 49.42703 10.32140 23783 ft 398 kts 302°
2026-05-05 16:15 49.45851 10.25192 23635 ft 398 kts 302°
2026-05-05 16:16 49.48985 10.18282 22645 ft 393 kts 302°
2026-05-05 16:16 49.52075 10.11510 21763 ft 385 kts 306°
2026-05-05 16:17 49.56176 10.06334 20899 ft 383 kts 331°
2026-05-05 16:17 49.58559 10.04517 20472 ft 380 kts 333°
2026-05-05 16:18 49.63249 10.01092 19633 ft 374 kts 333°
2026-05-05 16:18 49.65586 9.99352 19212 ft 371 kts 333°
2026-05-05 16:18 49.70170 9.95896 18378 ft 365 kts 332°
2026-05-05 16:19 49.72438 9.94095 17968 ft 375 kts 330°
2026-05-05 16:19 49.74802 9.92039 17519 ft 396 kts 329°
2026-05-05 16:19 49.79795 9.87610 16557 ft 437 kts 329°
2026-05-05 16:20 49.85049 9.82958 15414 ft 434 kts 329°
2026-05-05 16:20 49.90234 9.78397 13880 ft 427 kts 330°
2026-05-05 16:21 49.95426 9.74144 12382 ft 418 kts 332°
2026-05-05 16:22 50.02610 9.67279 10523 ft 391 kts 322°
2026-05-05 16:22 50.06717 9.62256 9991 ft 360 kts 321°
2026-05-05 16:23 50.10486 9.57616 9522 ft 334 kts 321°
2026-05-05 16:23 50.12276 9.55415 9307 ft 322 kts 321°
2026-05-05 16:23 50.15655 9.51255 8915 ft 300 kts 321°
2026-05-05 16:24 50.17262 9.49277 8706 ft 291 kts 321°
2026-05-05 16:24 50.18838 9.47336 8365 ft 288 kts 321°
2026-05-05 16:24 50.21901 9.43432 7612 ft 282 kts 308°
2026-05-05 16:25 50.22717 9.40730 7198 ft 277 kts 278°
2026-05-05 16:25 50.21959 9.35048 6477 ft 270 kts 249°
2026-05-05 16:25 50.21286 9.32276 6094 ft 269 kts 249°
2026-05-05 16:26 50.20012 9.26870 5385 ft 265 kts 250°
2026-05-05 16:26 50.18768 9.21497 4845 ft 261 kts 250°
2026-05-05 16:27 50.18181 9.18809 4718 ft 262 kts 253°
2026-05-05 16:27 50.17662 9.16085 4594 ft 261 kts 253°
2026-05-05 16:27 50.17125 9.13393 4468 ft 260 kts 252°
2026-05-05 16:27 50.16553 9.10729 4344 ft 261 kts 251°
2026-05-05 16:28 50.15952 9.08074 4220 ft 260 kts 250°
2026-05-05 16:28 50.15330 9.05434 4091 ft 260 kts 250°
2026-05-05 16:28 50.14694 9.02794 3966 ft 259 kts 249°
2026-05-05 16:28 50.14050 9.00159 3949 ft 258 kts 250°
2026-05-05 16:29 50.13423 8.97611 3941 ft 243 kts 250°
2026-05-05 16:29 50.12841 8.95241 3936 ft 229 kts 250°
2026-05-05 16:29 50.12275 8.92935 3943 ft 228 kts 250°
2026-05-05 16:29 50.11711 8.90630 3943 ft 224 kts 250°
2026-05-05 16:30 50.11169 8.88407 3941 ft 218 kts 250°
2026-05-05 16:30 50.10645 8.86255 3919 ft 207 kts 250°
2026-05-05 16:30 50.10148 8.84208 3745 ft 202 kts 250°
2026-05-05 16:30 50.09650 8.82149 3471 ft 202 kts 250°
2026-05-05 16:31 50.09157 8.80110 3207 ft 202 kts 250°
2026-05-05 16:31 50.08664 8.78067 2932 ft 202 kts 250°
2026-05-05 16:31 50.08178 8.76052 2661 ft 199 kts 250°
2026-05-05 16:31 50.07700 8.74066 2435 ft 192 kts 250°
2026-05-05 16:32 50.07240 8.72158 2226 ft 185 kts 250°
2026-05-05 16:32 50.06794 8.70301 1954 ft 182 kts 251°
2026-05-05 16:32 50.06365 8.68513 1695 ft 173 kts 251°
2026-05-05 16:32 50.05958 8.66818 1480 ft 158 kts 251°
2026-05-05 16:33 50.05592 8.65292 1265 ft 144 kts 250°
2026-05-05 16:33 50.05260 8.63905 1070 ft 133 kts 250°
2026-05-05 16:33 50.04942 8.62565 917 ft 131 kts 250°
2026-05-05 16:33 50.04621 8.61245 738 ft 131 kts 249°
2026-05-05 16:34 50.04304 8.59915 574 ft 130 kts 250°
2026-05-05 16:34 50.03993 8.58596 404 ft 130 kts 249°
2026-05-05 16:34 50.03702 8.57386 347 ft 100 kts 250°
2026-05-05 16:34 50.03519 8.56616 342 ft 50 kts 250°
2026-05-05 16:35 50.03434 8.56250 340 ft 22 kts 255°
2026-05-05 16:35 50.03442 8.56029 338 ft 17 kts 278°
2026-05-05 16:35 50.03453 8.55909 338 ft 8 kts 280°
2026-05-05 16:35 50.03464 8.55807 338 ft 10 kts 279°
2026-05-05 16:36 50.03507 8.55704 338 ft 12 kts 346°
2026-05-05 16:36 50.03568 8.55790 339 ft 15 kts 69°
2026-05-05 16:36 50.03612 8.55974 340 ft 21 kts 70°
2026-05-05 16:36 50.03670 8.56217 341 ft 26 kts 70°
2026-05-05 16:37 50.03735 8.56485 346 ft 26 kts 70°
2026-05-05 16:37 50.03804 8.56778 347 ft 30 kts 70°
2026-05-05 16:37 50.03876 8.57076 352 ft 28 kts 70°
2026-05-05 16:37 50.03944 8.57363 356 ft 28 kts 70°
2026-05-05 16:38 50.04013 8.57653 361 ft 28 kts 70°
2026-05-05 16:38 50.04083 8.57941 364 ft 28 kts 69°
2026-05-05 16:38 50.04159 8.58149 367 ft 18 kts 29°
2026-05-05 16:38 50.04279 8.58205 369 ft 17 kts 349°
2026-05-05 16:39 50.04390 8.58143 372 ft 16 kts 340°
2026-05-05 16:39 50.04479 8.58091 373 ft 8 kts 340°
2026-05-05 16:39 50.04532 8.58061 374 ft 8 kts 340°
2026-05-05 16:39 50.04593 8.58026 374 ft 10 kts 340°
2026-05-05 16:40 50.04656 8.57990 374 ft 7 kts 340°
2026-05-05 16:40 50.04671 8.57981 373 ft 0 kts 340°
2026-05-05 16:41 50.04672 8.57981 373 ft 1 kts 340°
2026-05-05 16:41 50.04728 8.57947 374 ft 16 kts 339°
2026-05-05 16:41 50.04833 8.57870 375 ft 18 kts 311°
2026-05-05 16:42 50.04897 8.57659 375 ft 23 kts 294°
2026-05-05 16:42 50.04955 8.57458 378 ft 14 kts 294°
2026-05-05 16:42 50.04985 8.57408 379 ft 0 kts 340°
2026-05-05 16:42 50.04987 8.57407 379 ft 0 kts 340°